GW6348 Weather Reports


time (UTC)temp
C
wind
direction
speed
KPH
gust
KPH
rain 1hr
cm
rain 24hr
cm
rain mn
cm
humidity
%
barometer
mb
20260510164532 26 99 6.4 12.9 0.00 0.10 0.03 71 1017.2
20260510163027 25 72 4.8 12.9 0.00 0.10 0.03 73 1017.4
20260510161528 25 79 4.8 16.1 0.00 0.10 0.03 75 1017.3
20260510160015 25 86 8.0 16.1 0.00 0.10 0.03 77 1017.0
20260510154522 24 127 9.7 17.7 0.00 0.10 0.03 78 1016.9
20260510153035 23 82 11.3 20.9 0.00 0.10 0.03 80 1017.0
20260510151527 23 107 12.9 20.9 0.00 0.10 0.03 81 1016.9
20260510150028 22 104 6.4 12.9 0.00 0.10 0.03 85 1017.1
20260510144528 21 70 8.0 16.1 0.00 0.10 0.03 87 1017.3
20260510143019 21 36 6.4 14.5 0.00 0.10 0.03 89 1017.3
20260510141524 21 81 9.7 16.1 0.00 0.10 0.03 91 1017.1
20260510140008 20 83 6.4 14.5 0.03 0.10 0.03 92 1017.2
20260510134514 20 82 6.4 12.9 0.03 0.10 0.03 93 1017.0
20260510133020 20 73 8.0 16.1 0.03 0.33 0.03 93 1016.7
20260510131522 19 76 11.3 16.1 0.03 1.55 0.03 93 1016.6
20260510130024 19 79 4.8 12.9 0.00 1.83 0.00 93 1016.4
20260510124510 18 71 4.8 9.7 0.00 1.83 0.00 93 1016.2
20260510123016 18 51 3.2 11.3 0.00 1.85 0.00 93 1016.1
20260510121520 18 36 3.2 11.3 0.00 1.85 0.00 93 1016.0
20260510120023 18 70 4.8 9.7 0.00 1.85 0.00 93 1015.8
20260510114530 18 82 8.0 11.3 0.00 1.85 0.00 93 1015.5
20260510113020 18 74 6.4 9.7 0.00 1.85 0.00 93 1015.1
20260510111518 18 74 8.0 12.9 0.00 1.85 0.00 93 1014.8
20260510110034 18 91 8.0 12.9 0.00 1.85 0.00 93 1014.5
20260510104526 18 123 6.4 11.3 0.00 1.85 0.00 93 1014.3
20260510103032 18 61 3.2 12.9 0.00 1.85 0.00 93 1013.9
20260510101518 18 55 4.8 12.9 0.00 1.85 0.00 93 1013.7
20260510100020 18 58 4.8 9.7 0.00 1.85 0.00 93 1013.6
20260510094524 18 25 4.8 9.7 0.00 1.85 0.00 93 1013.6
20260510093028 18 34 8.0 14.5 0.00 1.85 0.00 93 1013.5
20260510091530 18 31 8.0 12.9 0.00 1.85 0.00 93 1013.5
20260510090017 18 45 4.8 9.7 0.00 1.85 0.00 93 1013.3
20260510084524 18 58 3.2 8.0 0.00 1.85 0.00 93 1013.2
20260510083035 18 56 1.6 8.0 0.00 1.85 0.00 93 1013.2
20260510081528 18 45 3.2 6.4 0.00 1.85 0.00 93 1013.2
20260510080027 18 20 8.0 12.9 0.00 1.85 0.00 93 1013.3
20260510074520 18 30 3.2 14.5 0.00 1.85 0.00 93 1013.0
20260510073029 18 50 6.4 14.5 0.00 1.85 0.00 93 1012.9
20260510071540 18 29 4.8 12.9 0.00 1.85 0.00 92 1013.0
20260510070031 18 37 6.4 11.3 0.00 1.85 0.00 92 1013.1
20260510064524 19 27 6.4 11.3 0.00 1.85 0.00 92 1013.0
20260510063020 19 38 4.8 11.3 0.00 1.85 0.00 92 1013.0
20260510061525 19 36 4.8 8.0 0.00 1.85 0.00 92 1013.3
20260510060033 19 29 3.2 6.4 0.00 1.85 0.00 92 1013.1
20260510054528 19 65 4.8 6.4 0.00 1.85 0.00 92 1013.2
20260510053019 19 86 4.8 6.4 0.00 1.85 0.00 92 1013.2
20260510051533 19 83 4.8 6.4 0.00 1.85 0.00 92 1013.3
20260510050007 19 89 0.0 4.8 0.00 1.85 0.00 92 1013.4
20260510044519 20 88 1.6 4.8 0.00 1.85 1.85 91 1013.4
20260510043015 20 115 3.2 4.8 0.00 1.85 1.85 91 1013.4
20260510041522 20 109 3.2 6.4 0.00 1.85 1.85 91 1013.4
20260510040026 20 32 4.8 8.0 0.00 1.85 1.85 90 1013.6
20260510034509 20 29 4.8 4.8 0.00 1.85 1.85 90 1013.9
20260510033011 20 153 0.0 3.2 0.03 1.85 1.85 90 1013.7
20260510031517 20 122 0.0 3.2 0.03 1.85 1.85 90 1013.6
20260510030023 20 236 1.6 4.8 0.03 1.85 1.85 90 1013.8
20260510024523 20 205 6.4 12.9 0.03 1.85 1.85 90 1013.6
20260510023008 20 206 6.4 12.9 0.00 1.83 1.83 91 1013.5
20260510021510 20 165 11.3 19.3 0.00 1.83 1.83 91 1013.1
20260510020015 20 193 6.4 14.5 0.00 1.83 1.83 92 1012.9
20260510014523 20 114 6.4 12.9 0.00 1.83 1.83 92 1012.4
20260510013024 21 238 4.8 11.3 0.00 1.83 1.83 92 1013.1
20260510011512 20 158 6.4 14.5 0.00 1.83 1.83 92 1012.8
20260510010013 20 171 8.0 11.3 0.00 1.83 1.83 92 1012.8
20260510004519 20 153 6.4 14.5 0.00 1.83 1.83 92 1012.6
20260510003029 20 200 4.8 11.3 0.00 1.83 1.83 92 1012.7
20260510001527 20 176 3.2 8.0 0.00 1.83 1.83 92 1012.9
20260510000014 20 149 4.8 11.3 0.00 1.83 1.83 92 1012.5
20260509234516 20 181 6.4 12.9 0.00 1.83 1.83 92 1013.0
20260509233028 20 181 8.0 12.9 0.00 1.83 1.83 92 1013.2
20260509231530 20 156 4.8 11.3 0.03 1.83 1.83 92 1012.8
20260509230030 20 219 11.3 12.9 0.05 1.83 1.83 92 1012.8
20260509224529 20 181 3.2 4.8 0.05 1.83 1.83 92 1012.1
20260509223021 20 107 3.2 9.7 0.05 1.83 1.83 92 1011.6
20260509221531 20 127 3.2 14.5 0.03 1.80 1.80 92 1012.0
20260509220024 20 195 9.7 14.5 0.00 1.78 1.78 92 1012.9
20260509214508 20 208 9.7 16.1 0.00 1.78 1.78 92 1012.6
20260509213030 19 193 9.7 19.3 0.00 1.78 1.78 92 1011.5
20260509211519 19 126 8.0 16.1 0.00 1.78 1.78 92 1011.1
20260509210025 20 169 8.0 14.5 0.00 1.78 1.78 92 1011.1
20260509204525 19 178 3.2 6.4 0.00 1.78 1.78 92 1011.6
20260509203033 19 231 4.8 8.0 0.00 1.78 1.78 92 1012.5
20260509201516 19 215 8.0 11.3 0.00 1.78 1.78 93 1012.8
20260509200031 19 124 6.4 17.7 0.00 1.78 1.78 92 1012.4
20260509194525 19 188 4.8 12.9 0.00 1.78 1.78 92 1012.7
20260509193026 19 210 6.4 17.7 0.00 1.78 1.78 92 1013.5
20260509191514 19 217 6.4 14.5 0.00 1.78 1.78 93 1013.3
20260509190042 19 143 4.8 9.7 0.00 1.78 1.78 93 1013.4
20260509184532 19 194 0.0 6.4 0.00 1.78 1.78 93 1013.0
20260509183029 19 141 8.0 19.3 0.00 1.78 1.78 92 1012.8
20260509181511 19 86 8.0 17.7 0.00 1.78 1.78 93 1012.6
20260509180013 19 101 8.0 20.9 0.00 1.78 1.78 93 1012.8
20260509174524 18 121 6.4 12.9 0.00 1.78 1.78 93 1013.6
20260509173023 18 188 6.4 19.3 0.00 1.78 1.78 93 1013.6
20260509171507 18 80 4.8 6.4 0.00 1.78 1.78 93 1014.0
20260509170032 18 114 8.0 20.9 0.00 1.78 1.78 92 1013.4